User: anonymous   Login
Location: �clusier
(49.9361°N, 2.7869°E)
Time: 21:01:41
(UTC+00:00)
Language:

Cosmos 1346 Rocket - Orbit

View from above orbital plane
View from above orbital plane
View from above satellite
View from above satellite

Ground track
Ground track

The orbit data is extracted from the following two-line orbital elements,

1 13121U 82027B   21271.54985109  .00000363  00000-0  21271-4 0  9990
2 13121  81.1724 120.9527 0014241 323.8659  36.1602 15.09285179152572
Epoch (UTC): 28 September 2021 13:11:47
Eccentricity: 0.0014241
inclination: 81.1724°
perigee height: 528 km
apogee height: 548 km
right ascension of ascending node: 120.9527°
argument of perigee: 323.8659°
revolutions per day: 15.09285179
mean anomaly at epoch: 36.1602°
orbit number at epoch: 15257

The dashed part of the orbit path shows where the satellite is in the earth's shadow,  

DLR